Time,TemperatureF,DewpointF,PressureIn,WindDirection,WindDirectionDegrees,WindSpeedMPH,WindSpeedGustMPH,Humidity,HourlyPrecipIn,Conditions,Clouds,dailyrainin,SolarRadiationWatts/m^2,SoftwareType,DateUTC
2013-05-09 00:02:00,60.0,58.0,-100.00,East,98,4.0,7.0,92,0.00,,,0.00,0.000000,,2013-05-09 05:02:00,
2013-05-09 00:32:00,59.0,56.0,-100.00,East,101,3.0,7.0,91,0.00,,,0.00,0.000000,,2013-05-09 05:32:00,
2013-05-09 00:42:00,59.0,56.0,-100.00,East,101,3.0,7.0,91,0.00,,,0.00,0.000000,,2013-05-09 05:42:00,
2013-05-09 00:52:00,59.0,56.0,-100.00,East,101,3.0,7.0,91,0.00,,,0.00,0.000000,,2013-05-09 05:52:00,
2013-05-09 01:02:00,59.0,56.0,-100.00,East,101,3.0,7.0,91,0.00,,,0.00,0.000000,,2013-05-09 06:02:00,
2013-05-09 01:32:00,58.0,55.0,-100.00,ESE,110,1.0,6.0,91,0.00,,,0.00,0.000000,,2013-05-09 06:32:00,
2013-05-09 01:42:00,58.0,55.0,-100.00,ESE,110,1.0,6.0,91,0.00,,,0.00,0.000000,,2013-05-09 06:42:00,
2013-05-09 01:52:00,58.0,55.0,-100.00,ESE,110,1.0,6.0,91,0.00,,,0.00,0.000000,,2013-05-09 06:52:00,
2013-05-09 02:01:00,58.0,55.0,-100.00,ESE,110,1.0,6.0,91,0.00,,,0.00,0.000000,,2013-05-09 07:01:00,
2013-05-09 02:32:00,59.0,55.0,-100.00,East,99,4.0,5.0,88,0.00,,,0.00,0.000000,,2013-05-09 07:32:00,
2013-05-09 02:43:00,59.0,55.0,-100.00,East,99,4.0,5.0,88,0.00,,,0.00,0.000000,,2013-05-09 07:43:00,
2013-05-09 02:52:00,59.0,55.0,-100.00,East,99,4.0,5.0,88,0.00,,,0.00,0.000000,,2013-05-09 07:52:00,
2013-05-09 03:02:00,59.0,55.0,-100.00,East,99,4.0,5.0,88,0.00,,,0.00,0.000000,,2013-05-09 08:02:00,
2013-05-09 03:32:00,59.0,55.0,-100.00,South,172,3.0,6.0,86,0.00,,,0.00,0.000000,,2013-05-09 08:32:00,
2013-05-09 03:42:00,59.0,55.0,-100.00,South,172,3.0,6.0,86,0.00,,,0.00,0.000000,,2013-05-09 08:42:00,
2013-05-09 03:52:00,59.0,55.0,-100.00,South,172,3.0,6.0,86,0.00,,,0.00,0.000000,,2013-05-09 08:52:00,
2013-05-09 04:02:00,59.0,55.0,-100.00,South,172,3.0,6.0,86,0.00,,,0.00,0.000000,,2013-05-09 09:02:00,
2013-05-09 04:32:00,59.0,57.0,-100.00,SSE,166,5.0,10.0,94,0.00,,,0.00,0.000000,,2013-05-09 09:32:00,
2013-05-09 04:43:00,59.0,57.0,-100.00,SSE,166,5.0,10.0,94,0.00,,,0.00,0.000000,,2013-05-09 09:43:00,
2013-05-09 04:53:00,59.0,57.0,-100.00,SSE,166,5.0,10.0,94,0.00,,,0.00,0.000000,,2013-05-09 09:53:00,
2013-05-09 05:02:00,59.0,57.0,-100.00,SSE,166,5.0,10.0,94,0.00,,,0.00,0.000000,,2013-05-09 10:02:00,
2013-05-09 05:33:00,58.0,57.0,-100.00,SSE,151,2.0,7.0,98,0.00,,,0.00,0.000000,,2013-05-09 10:33:00,
2013-05-09 05:42:00,58.0,57.0,-100.00,SSE,151,2.0,7.0,98,0.00,,,0.00,0.000000,,2013-05-09 10:42:00,
2013-05-09 05:52:00,58.0,57.0,-100.00,SSE,151,2.0,7.0,98,0.00,,,0.00,0.000000,,2013-05-09 10:52:00,
2013-05-09 06:02:00,58.0,57.0,-100.00,SSE,151,2.0,7.0,98,0.00,,,0.00,0.000000,,2013-05-09 11:02:00,
2013-05-09 06:32:00,58.0,58.0,-100.00,North,7,4.0,7.0,99,0.00,,,0.00,0.000000,,2013-05-09 11:32:00,
2013-05-09 06:42:00,58.0,58.0,-100.00,North,7,4.0,7.0,99,0.00,,,0.00,0.000000,,2013-05-09 11:42:00,
2013-05-09 06:52:00,58.0,58.0,-100.00,North,7,4.0,7.0,99,0.00,,,0.00,0.000000,,2013-05-09 11:52:00,
2013-05-09 07:01:00,58.0,58.0,-100.00,North,7,4.0,7.0,99,0.00,,,0.00,0.000000,,2013-05-09 12:01:00,
2013-05-09 07:32:00,58.0,58.0,-100.00,ENE,68,3.0,6.0,100,0.00,,,-99.99,14.000000,,2013-05-09 12:32:00,
2013-05-09 07:42:00,58.0,58.0,-100.00,ENE,68,3.0,6.0,100,0.00,,,-99.99,14.000000,,2013-05-09 12:42:00,
2013-05-09 07:52:00,58.0,58.0,-100.00,ENE,68,3.0,6.0,100,0.00,,,-99.99,14.000000,,2013-05-09 12:52:00,
2013-05-09 08:01:00,58.0,58.0,-100.00,ENE,68,3.0,6.0,100,0.00,,,-99.99,14.000000,,2013-05-09 13:01:00,
2013-05-09 08:32:00,59.0,59.0,-100.00,SSE,159,3.0,5.0,100,0.00,,,0.00,40.000000,,2013-05-09 13:32:00,
2013-05-09 08:42:00,59.0,59.0,-100.00,SSE,159,3.0,5.0,100,0.00,,,0.00,40.000000,,2013-05-09 13:42:00,
2013-05-09 08:52:00,59.0,59.0,-100.00,SSE,159,3.0,5.0,100,0.00,,,0.00,40.000000,,2013-05-09 13:52:00,
2013-05-09 09:01:00,59.0,59.0,-100.00,SSE,159,3.0,5.0,100,0.00,,,0.00,40.000000,,2013-05-09 14:01:00,
2013-05-09 09:32:00,60.0,60.0,-100.00,South,170,3.0,7.0,99,0.00,,,0.00,83.000000,,2013-05-09 14:32:00,
2013-05-09 09:42:00,60.0,60.0,-100.00,South,170,3.0,7.0,99,0.00,,,0.00,83.000000,,2013-05-09 14:42:00,
2013-05-09 09:52:00,60.0,60.0,-100.00,South,170,3.0,7.0,99,0.00,,,0.00,83.000000,,2013-05-09 14:52:00,
2013-05-09 10:01:00,60.0,60.0,-100.00,South,170,3.0,7.0,99,0.00,,,0.00,83.000000,,2013-05-09 15:01:00,
2013-05-09 10:33:00,63.0,60.0,-100.00,SSE,167,2.0,5.0,89,0.00,,,0.00,122.000000,,2013-05-09 15:33:00,
2013-05-09 10:43:00,63.0,60.0,-100.00,SSE,167,2.0,5.0,89,0.00,,,0.00,122.000000,,2013-05-09 15:43:00,
2013-05-09 10:53:00,63.0,60.0,-100.00,SSE,167,2.0,5.0,89,0.00,,,0.00,122.000000,,2013-05-09 15:53:00,
2013-05-09 11:03:00,63.0,60.0,-100.00,SSE,167,2.0,5.0,89,0.00,,,0.00,122.000000,,2013-05-09 16:03:00,
2013-05-09 11:33:00,62.0,61.0,-100.00,SSW,202,3.0,7.0,97,0.01,,,0.01,100.000000,,2013-05-09 16:33:00,
2013-05-09 11:42:00,62.0,61.0,-100.00,SSW,202,3.0,7.0,97,0.01,,,0.01,100.000000,,2013-05-09 16:42:00,
2013-05-09 11:53:00,62.0,61.0,-100.00,SSW,202,3.0,7.0,97,0.01,,,0.01,100.000000,,2013-05-09 16:53:00,
2013-05-09 12:02:00,62.0,61.0,-100.00,SSW,202,3.0,7.0,97,0.01,,,0.01,100.000000,,2013-05-09 17:02:00,
2013-05-09 12:32:00,62.0,62.0,-100.00,WNW,299,3.0,5.0,100,0.07,,,0.08,95.000000,,2013-05-09 17:32:00,
2013-05-09 12:42:00,62.0,62.0,-100.00,WNW,299,3.0,5.0,100,0.07,,,0.08,95.000000,,2013-05-09 17:42:00,
2013-05-09 12:55:00,62.0,62.0,-100.00,WNW,299,3.0,5.0,100,0.07,,,0.08,95.000000,,2013-05-09 17:55:00,
2013-05-09 13:01:00,62.0,62.0,-100.00,WNW,299,3.0,5.0,100,0.07,,,0.08,95.000000,,2013-05-09 18:01:00,
2013-05-09 13:32:00,61.0,61.0,-100.00,NW,312,4.0,7.0,100,0.08,,,0.16,93.000000,,2013-05-09 18:32:00,
2013-05-09 13:42:00,61.0,61.0,-100.00,NW,312,4.0,7.0,100,0.08,,,0.16,93.000000,,2013-05-09 18:42:00,
2013-05-09 13:52:00,61.0,61.0,-100.00,NW,312,4.0,7.0,100,0.08,,,0.16,93.000000,,2013-05-09 18:52:00,
2013-05-09 14:01:00,61.0,61.0,-100.00,NW,312,4.0,7.0,100,0.08,,,0.16,93.000000,,2013-05-09 19:01:00,
2013-05-09 15:32:00,64.0,61.0,-100.00,NW,307,8.0,13.0,90,-99.99,,,0.22,429.000000,,2013-05-09 20:32:00,
2013-05-09 15:42:00,64.0,61.0,-100.00,NW,307,8.0,13.0,90,-99.99,,,0.22,429.000000,,2013-05-09 20:42:00,
2013-05-09 15:52:00,64.0,61.0,-100.00,NW,307,8.0,13.0,90,-99.99,,,0.22,429.000000,,2013-05-09 20:52:00,
2013-05-09 16:02:00,64.0,61.0,-100.00,NW,307,8.0,13.0,90,-99.99,,,0.22,429.000000,,2013-05-09 21:02:00,
2013-05-09 17:33:00,69.0,60.0,-100.00,NW,316,5.0,10.0,73,-99.99,,,0.22,367.000000,,2013-05-09 22:33:00,
2013-05-09 17:42:00,69.0,60.0,-100.00,NW,316,5.0,10.0,73,-99.99,,,0.22,367.000000,,2013-05-09 22:42:00,
2013-05-09 17:52:00,69.0,60.0,-100.00,NW,316,5.0,10.0,73,-99.99,,,0.22,367.000000,,2013-05-09 22:52:00,
2013-05-09 18:02:00,69.0,60.0,-100.00,NW,316,5.0,10.0,73,-99.99,,,0.22,367.000000,,2013-05-09 23:02:00,
2013-05-09 18:32:00,69.0,57.0,-100.00,WNW,291,6.0,12.0,66,0.00,,,0.22,343.000000,,2013-05-09 23:32:00,
2013-05-09 18:42:00,69.0,57.0,-100.00,WNW,291,6.0,12.0,66,0.00,,,0.22,343.000000,,2013-05-09 23:42:00,
2013-05-09 18:52:00,69.0,57.0,-100.00,WNW,291,6.0,12.0,66,0.00,,,0.22,343.000000,,2013-05-09 23:52:00,
2013-05-09 19:01:00,69.0,57.0,-100.00,WNW,291,6.0,12.0,66,0.00,,,0.22,343.000000,,2013-05-10 00:01:00,
2013-05-09 20:32:00,61.0,60.0,-100.00,WNW,283,5.0,14.0,95,-99.99,,,0.23,11.000000,,2013-05-10 01:32:00,
2013-05-09 20:42:00,61.0,60.0,-100.00,WNW,283,5.0,14.0,95,-99.99,,,0.23,11.000000,,2013-05-10 01:42:00,
2013-05-09 20:52:00,61.0,60.0,-100.00,WNW,283,5.0,14.0,95,-99.99,,,0.23,11.000000,,2013-05-10 01:52:00,
2013-05-09 21:02:00,61.0,60.0,-100.00,WNW,283,5.0,14.0,95,-99.99,,,0.23,11.000000,,2013-05-10 02:02:00,
2013-05-09 21:32:00,59.0,59.0,-100.00,NW,309,4.0,7.0,100,0.00,,,0.23,0.000000,,2013-05-10 02:32:00,
2013-05-09 21:42:00,59.0,59.0,-100.00,NW,309,4.0,7.0,100,0.00,,,0.23,0.000000,,2013-05-10 02:42:00,
2013-05-09 21:52:00,59.0,59.0,-100.00,NW,309,4.0,7.0,100,0.00,,,0.23,0.000000,,2013-05-10 02:52:00,
2013-05-09 22:01:00,59.0,59.0,-100.00,NW,309,4.0,7.0,100,0.00,,,0.23,0.000000,,2013-05-10 03:01:00,
2013-05-09 22:33:00,59.0,58.0,-100.00,NNW,334,6.0,12.0,96,0.01,,,0.24,0.000000,,2013-05-10 03:33:00,
2013-05-09 22:43:00,59.0,58.0,-100.00,NNW,334,6.0,12.0,96,0.01,,,0.24,0.000000,,2013-05-10 03:43:00,
2013-05-09 22:53:00,59.0,58.0,-100.00,NNW,334,6.0,12.0,96,0.01,,,0.24,0.000000,,2013-05-10 03:53:00,
2013-05-09 23:03:00,59.0,58.0,-100.00,NNW,334,6.0,12.0,96,0.01,,,0.24,0.000000,,2013-05-10 04:03:00,
2013-05-09 23:33:00,58.0,56.0,-100.00,NNW,345,8.0,16.0,93,0.00,,,0.24,0.000000,,2013-05-10 04:33:00,
2013-05-09 23:43:00,58.0,56.0,-100.00,NNW,345,8.0,16.0,93,0.00,,,0.24,0.000000,,2013-05-10 04:43:00,
2013-05-09 23:53:00,58.0,56.0,-100.00,NNW,345,8.0,16.0,93,0.00,,,0.24,0.000000,,2013-05-10 04:53:00,